Time,TemperatureF,DewpointF,PressureIn,WindDirection,WindDirectionDegrees,WindSpeedMPH,WindSpeedGustMPH,Humidity,HourlyPrecipIn,Conditions,Clouds,dailyrainin,SoftwareType,DateUTC
2013-01-03 00:10:00,23.1,18.0,28.37,SSW,194,0.0,0.0,81,0.00,,,0.00,weatherlink.com 1.10,2013-01-03 05:10:00,
2013-01-03 00:25:00,22.9,17.0,28.37,SSW,194,0.0,0.0,79,0.00,,,0.00,weatherlink.com 1.10,2013-01-03 05:25:00,
2013-01-03 00:40:00,22.0,17.0,28.36,SSW,194,0.0,0.0,81,0.00,,,0.00,weatherlink.com 1.10,2013-01-03 05:40:00,
2013-01-03 00:55:00,22.2,17.0,28.36,SSW,194,0.0,1.0,81,0.00,,,0.00,weatherlink.com 1.10,2013-01-03 05:55:00,
2013-01-03 01:10:00,22.1,17.0,28.35,SSW,194,0.0,0.0,81,0.00,,,0.00,weatherlink.com 1.10,2013-01-03 06:10:00,
2013-01-03 01:25:00,22.3,17.0,28.36,SSW,194,0.0,1.0,80,0.00,,,0.00,weatherlink.com 1.10,2013-01-03 06:25:00,
2013-01-03 01:40:00,22.0,17.0,28.36,SSW,194,0.0,0.0,80,0.00,,,0.00,weatherlink.com 1.10,2013-01-03 06:40:00,
2013-01-03 01:55:00,21.9,17.0,28.36,SSW,194,0.0,0.0,81,0.00,,,0.00,weatherlink.com 1.10,2013-01-03 06:55:00,
2013-01-03 02:10:00,21.6,17.0,28.36,SSW,194,0.0,0.0,82,0.00,,,0.00,weatherlink.com 1.10,2013-01-03 07:10:00,
2013-01-03 02:25:00,21.5,18.0,28.36,SSW,194,0.0,0.0,85,0.00,,,0.00,weatherlink.com 1.10,2013-01-03 07:25:00,
2013-01-03 02:40:00,21.2,17.0,28.37,SSW,194,0.0,0.0,85,0.00,,,0.00,weatherlink.com 1.10,2013-01-03 07:40:00,
2013-01-03 02:55:00,21.5,18.0,28.36,SSW,194,0.0,1.0,86,0.00,,,0.00,weatherlink.com 1.10,2013-01-03 07:55:00,
2013-01-03 03:10:00,22.1,17.0,28.36,SSW,194,0.0,2.0,81,0.00,,,0.00,weatherlink.com 1.10,2013-01-03 08:10:00,
2013-01-03 03:25:00,22.3,17.0,28.36,SSW,194,0.0,1.0,80,0.00,,,0.00,weatherlink.com 1.10,2013-01-03 08:25:00,
2013-01-03 03:40:00,22.4,17.0,28.36,SSW,195,0.0,1.0,80,0.00,,,0.00,weatherlink.com 1.10,2013-01-03 08:40:00,
2013-01-03 03:55:00,22.2,17.0,28.36,SSW,194,0.0,0.0,80,0.00,,,0.00,weatherlink.com 1.10,2013-01-03 08:55:00,
2013-01-03 04:10:00,22.0,17.0,28.36,SSW,194,0.0,0.0,82,0.00,,,0.00,weatherlink.com 1.10,2013-01-03 09:10:00,
2013-01-03 04:25:00,21.5,17.0,28.35,SSW,194,0.0,0.0,81,0.00,,,0.00,weatherlink.com 1.10,2013-01-03 09:25:00,
2013-01-03 04:40:00,20.5,16.0,28.34,SSW,194,0.0,0.0,82,0.00,,,0.00,weatherlink.com 1.10,2013-01-03 09:40:00,
2013-01-03 04:55:00,19.7,16.0,28.35,SSW,194,0.0,0.0,84,0.00,,,0.00,weatherlink.com 1.10,2013-01-03 09:55:00,
2013-01-03 05:10:00,19.0,16.0,28.36,SSW,195,0.0,0.0,86,0.00,,,0.00,weatherlink.com 1.10,2013-01-03 10:10:00,
2013-01-03 05:25:00,19.2,16.0,28.36,SSW,195,0.0,0.0,87,0.00,,,0.00,weatherlink.com 1.10,2013-01-03 10:25:00,
2013-01-03 05:40:00,18.6,15.0,28.37,SSW,194,0.0,0.0,87,0.00,,,0.00,weatherlink.com 1.10,2013-01-03 10:40:00,
2013-01-03 05:55:00,17.9,15.0,28.37,SSW,194,0.0,0.0,87,0.00,,,0.00,weatherlink.com 1.10,2013-01-03 10:55:00,
2013-01-03 06:10:00,17.2,14.0,28.37,SSW,195,0.0,0.0,87,0.00,,,0.00,weatherlink.com 1.10,2013-01-03 11:10:00,
2013-01-03 06:25:00,16.6,14.0,28.38,SSW,195,0.0,0.0,90,0.00,,,0.00,weatherlink.com 1.10,2013-01-03 11:25:00,
2013-01-03 06:40:00,15.6,13.0,28.38,SSW,195,0.0,0.0,89,0.00,,,0.00,weatherlink.com 1.10,2013-01-03 11:40:00,
2013-01-03 06:55:00,14.3,12.0,28.38,SSW,195,0.0,0.0,89,0.00,,,0.00,weatherlink.com 1.10,2013-01-03 11:55:00,
2013-01-03 07:10:00,14.3,12.0,28.38,SSW,194,0.0,0.0,92,0.00,,,0.00,weatherlink.com 1.10,2013-01-03 12:10:00,
2013-01-03 07:25:00,15.5,14.0,28.39,SSW,195,0.0,0.0,92,0.00,,,0.00,weatherlink.com 1.10,2013-01-03 12:25:00,
2013-01-03 07:40:00,15.9,14.0,28.39,SSW,200,0.0,2.0,90,0.00,,,0.00,weatherlink.com 1.10,2013-01-03 12:40:00,
2013-01-03 07:55:00,16.2,13.0,28.39,SSW,201,0.0,1.0,88,0.00,,,0.00,weatherlink.com 1.10,2013-01-03 12:55:00,
2013-01-03 08:11:00,16.4,14.0,28.39,SSW,201,0.0,1.0,88,0.00,,,0.00,weatherlink.com 1.10,2013-01-03 13:11:00,
2013-01-03 08:26:00,16.6,14.0,28.39,SSW,201,0.0,0.0,88,0.00,,,0.00,weatherlink.com 1.10,2013-01-03 13:26:00,
2013-01-03 08:41:00,17.2,15.0,28.39,SSW,201,0.0,0.0,89,0.00,,,0.00,weatherlink.com 1.10,2013-01-03 13:41:00,
2013-01-03 08:56:00,18.1,14.0,28.39,SSW,201,0.0,1.0,85,0.00,,,0.00,weatherlink.com 1.10,2013-01-03 13:56:00,
2013-01-03 09:11:00,19.3,15.0,28.39,SSW,201,0.0,0.0,83,0.00,,,0.00,weatherlink.com 1.10,2013-01-03 14:11:00,
2013-01-03 09:26:00,20.4,16.0,28.39,SSW,201,0.0,0.0,83,0.00,,,0.00,weatherlink.com 1.10,2013-01-03 14:26:00,
2013-01-03 09:41:00,21.6,17.0,28.39,SSW,200,0.0,0.0,82,0.00,,,0.00,weatherlink.com 1.10,2013-01-03 14:41:00,
2013-01-03 09:56:00,23.0,18.0,28.39,SSW,200,0.0,1.0,80,0.00,,,0.00,weatherlink.com 1.10,2013-01-03 14:56:00,
2013-01-03 10:11:00,24.9,18.0,28.39,SSW,200,0.0,0.0,74,0.00,,,0.00,weatherlink.com 1.10,2013-01-03 15:11:00,
2013-01-03 10:26:00,26.2,16.0,28.39,SSW,200,0.0,2.0,66,0.00,,,0.00,weatherlink.com 1.10,2013-01-03 15:26:00,
2013-01-03 10:41:00,28.1,18.0,28.39,SSW,197,0.0,0.0,65,0.00,,,0.00,weatherlink.com 1.10,2013-01-03 15:41:00,
2013-01-03 10:56:00,29.7,18.0,28.38,SSE,159,0.0,1.0,63,0.00,,,0.00,weatherlink.com 1.10,2013-01-03 15:56:00,
2013-01-03 11:11:00,32.1,19.0,28.37,SSE,163,0.0,1.0,59,0.00,,,0.00,weatherlink.com 1.10,2013-01-03 16:11:00,
2013-01-03 11:26:00,33.9,18.0,28.36,SE,129,0.0,2.0,52,0.00,,,0.00,weatherlink.com 1.10,2013-01-03 16:26:00,
2013-01-03 11:41:00,32.9,18.0,28.36,South,177,0.0,3.0,55,0.00,,,0.00,weatherlink.com 1.10,2013-01-03 16:41:00,
2013-01-03 11:56:00,34.2,17.0,28.35,SE,141,0.0,0.0,49,0.00,,,0.00,weatherlink.com 1.10,2013-01-03 16:56:00,
2013-01-03 12:11:00,35.3,17.0,28.34,SSE,148,0.0,1.0,47,0.00,,,0.00,weatherlink.com 1.10,2013-01-03 17:11:00,
2013-01-03 12:26:00,35.8,15.0,28.33,SSE,148,0.0,1.0,43,0.00,,,0.00,weatherlink.com 1.10,2013-01-03 17:26:00,
2013-01-03 12:41:00,37.7,17.0,28.32,NE,45,2.0,2.0,44,0.00,,,0.00,weatherlink.com 1.10,2013-01-03 17:41:00,
2013-01-03 12:56:00,38.0,17.0,28.31,SSW,207,4.0,9.0,42,0.00,,,0.00,weatherlink.com 1.10,2013-01-03 17:56:00,
2013-01-03 13:11:00,39.0,19.0,28.31,SSW,192,0.0,6.0,44,0.00,,,0.00,weatherlink.com 1.10,2013-01-03 18:11:00,
2013-01-03 13:26:00,39.6,17.0,28.30,SSW,193,5.0,8.0,40,0.00,,,0.00,weatherlink.com 1.10,2013-01-03 18:26:00,
2013-01-03 13:41:00,39.9,17.0,28.30,NW,323,1.0,4.0,39,0.00,,,0.00,weatherlink.com 1.10,2013-01-03 18:41:00,
2013-01-03 13:56:00,40.0,18.0,28.30,SW,229,4.0,7.0,41,0.00,,,0.00,weatherlink.com 1.10,2013-01-03 18:56:00,
2013-01-03 14:57:00,40.2,19.0,28.32,South,190,2.0,6.0,42,0.00,,,0.00,weatherlink.com 1.10,2013-01-03 19:57:00,
2013-01-03 15:12:00,39.6,18.0,28.32,SW,225,0.0,7.0,41,0.00,,,0.00,weatherlink.com 1.10,2013-01-03 20:12:00,
2013-01-03 15:27:00,40.2,18.0,28.32,SSW,207,1.0,9.0,40,0.00,,,0.00,weatherlink.com 1.10,2013-01-03 20:27:00,
2013-01-03 15:42:00,39.9,18.0,28.33,SSW,204,1.0,4.0,42,0.00,,,0.00,weatherlink.com 1.10,2013-01-03 20:42:00,
2013-01-03 15:57:00,38.5,15.0,28.33,ESE,108,0.0,11.0,38,0.00,,,0.00,weatherlink.com 1.10,2013-01-03 20:57:00,
2013-01-03 16:12:00,37.1,16.0,28.33,SW,228,0.0,5.0,43,0.00,,,0.00,weatherlink.com 1.10,2013-01-03 21:12:00,
2013-01-03 16:27:00,35.6,16.0,28.34,SSW,207,0.0,4.0,44,0.00,,,0.00,weatherlink.com 1.10,2013-01-03 21:27:00,
2013-01-03 16:42:00,34.3,15.0,28.34,SW,224,6.0,10.0,46,0.00,,,0.00,weatherlink.com 1.10,2013-01-03 21:42:00,
2013-01-03 16:57:00,34.1,16.0,28.35,SSW,204,0.0,3.0,48,0.00,,,0.00,weatherlink.com 1.10,2013-01-03 21:57:00,
2013-01-03 17:12:00,34.3,14.0,28.35,South,190,1.0,9.0,43,0.00,,,0.00,weatherlink.com 1.10,2013-01-03 22:12:00,
2013-01-03 17:27:00,33.6,17.0,28.35,SW,218,5.0,5.0,50,0.00,,,0.00,weatherlink.com 1.10,2013-01-03 22:27:00,
2013-01-03 17:42:00,32.4,15.0,28.36,SSW,205,0.0,5.0,49,0.00,,,0.00,weatherlink.com 1.10,2013-01-03 22:42:00,
2013-01-03 17:57:00,32.5,15.0,28.36,SSW,205,0.0,13.0,48,0.00,,,0.00,weatherlink.com 1.10,2013-01-03 22:57:00,
2013-01-03 18:12:00,31.3,16.0,28.36,West,259,4.0,5.0,54,0.00,,,0.00,weatherlink.com 1.10,2013-01-03 23:12:00,
2013-01-03 18:27:00,31.4,16.0,28.36,SSW,197,0.0,5.0,53,0.00,,,0.00,weatherlink.com 1.10,2013-01-03 23:27:00,
2013-01-03 18:42:00,31.6,15.0,28.36,WSW,250,0.0,8.0,51,0.00,,,0.00,weatherlink.com 1.10,2013-01-03 23:42:00,
2013-01-03 18:57:00,31.8,15.0,28.36,SW,225,3.0,11.0,51,0.00,,,0.00,weatherlink.com 1.10,2013-01-03 23:57:00,
2013-01-03 19:12:00,31.3,16.0,28.36,SW,218,3.0,6.0,53,0.00,,,0.00,weatherlink.com 1.10,2013-01-04 00:12:00,
2013-01-03 19:27:00,30.8,16.0,28.36,SW,221,3.0,4.0,55,0.00,,,0.00,weatherlink.com 1.10,2013-01-04 00:27:00,
2013-01-03 19:42:00,30.8,16.0,28.37,WSW,243,4.0,5.0,55,0.00,,,0.00,weatherlink.com 1.10,2013-01-04 00:42:00,
2013-01-03 19:57:00,30.7,17.0,28.37,SW,219,4.0,7.0,56,0.00,,,0.00,weatherlink.com 1.10,2013-01-04 00:57:00,
2013-01-03 20:13:00,30.5,17.0,28.37,WSW,257,3.0,8.0,57,0.00,,,0.00,weatherlink.com 1.10,2013-01-04 01:13:00,
2013-01-03 20:27:00,31.2,17.0,28.37,West,279,7.0,13.0,57,0.00,,,0.00,weatherlink.com 1.10,2013-01-04 01:27:00,
2013-01-03 20:42:00,31.0,17.0,28.38,South,191,0.0,9.0,57,0.00,,,0.00,weatherlink.com 1.10,2013-01-04 01:42:00,
2013-01-03 21:12:00,30.6,18.0,28.38,South,191,1.0,5.0,60,0.00,,,0.00,weatherlink.com 1.10,2013-01-04 02:12:00,
2013-01-03 21:27:00,30.3,18.0,28.38,SE,135,0.0,10.0,61,0.00,,,0.00,weatherlink.com 1.10,2013-01-04 02:27:00,
2013-01-03 21:42:00,30.2,18.0,28.39,ESE,105,0.0,6.0,62,0.00,,,0.00,weatherlink.com 1.10,2013-01-04 02:42:00,
2013-01-03 21:57:00,30.4,18.0,28.39,SW,224,3.0,17.0,61,0.00,,,0.00,weatherlink.com 1.10,2013-01-04 02:57:00,
2013-01-03 22:42:00,30.7,19.0,28.39,WSW,249,0.0,4.0,62,0.00,,,0.00,weatherlink.com 1.10,2013-01-04 03:42:00,
2013-01-03 22:57:00,30.3,19.0,28.39,East,83,7.0,11.0,64,0.00,,,0.00,weatherlink.com 1.10,2013-01-04 03:57:00,
2013-01-03 23:12:00,30.4,19.0,28.39,West,267,0.0,3.0,63,0.00,,,0.00,weatherlink.com 1.10,2013-01-04 04:12:00,
2013-01-03 23:27:00,29.8,19.0,28.39,ESE,104,1.0,3.0,64,0.00,,,0.00,weatherlink.com 1.10,2013-01-04 04:27:00,
2013-01-03 23:42:00,30.2,19.0,28.39,West,270,2.0,6.0,64,0.00,,,0.00,weatherlink.com 1.10,2013-01-04 04:42:00,
2013-01-03 23:57:00,30.3,19.0,28.39,SSW,198,0.0,3.0,63,0.00,,,0.00,weatherlink.com 1.10,2013-01-04 04:57:00,